Location: Mesa
(33.4220°N, 111.8220°W)
Time: 20:26:57
(UTC-07:00)

Hubble Space Telescope - Pass Details

Date: 24 November 2019
Orbit: 536 x 540 km, 28.5° (Epoch: 12 December)

Event Time Altitude Azimuth Distance (km) Brightness Sun altitude
Rises 18:05:36 0° 259° (WSW) 2,668 6.5 -9.5°
Reaches altitude 10° 18:07:56 10° 252° (WSW) 1,778 5.1 -10.0°
Maximum altitude 18:11:49 41° 181° (S) 773 1.7 -10.8°
Enters shadow 18:15:37 11° 111° (ESE) 1,745 2.9 -11.5°
